Torna al catalogo

POLYTECH UNIVERSE-4

AttivoScienzaSSO
NORAD 61747·PAYLOAD·🇷🇺 Russia

Lanciato Nov 4, 2024 da Vostochny Cosmodrome

Loading…

Prossimi Passaggi (prossime 24 ore)

TLE

AggiornatoSource: Space-Track

Epoca: Sep 14, 2026, 15:11 UTC

1 61747U 24199N   26257.63312269  .00016649  00000-0  31374-3 0  9991
2 61747  97.2827 131.4156 0006673 324.4696  35.6110 15.48555601151192

Traccia POLYTECH UNIVERSE-4 in tempo reale con AllMySat

Download on the App Store